Flag for Russia Weather past 2 weeks in Kazan, Russia

Now
61 °F

Clear.


Feels Like: 61 °F
Forecast: 60 / 88 °F
Wind: 8 mph from South

Location: Kazan'

Current Time: Jul 30, 2014 at 3:31:19 AM

Latest Report: Jul 30, 2014 at 2:30 AM


Visibility: 10 mi

Pressure: 29.98 "Hg

Humidity: 77%

Dew point: 54 °F

Location of KazanLocation

Historic Weather in Kazan — Graph

°F

Kazan temperature yesterday

Maximum temperature yesterday: 73 °F (at 4:30 PM)
Minimum temperature yesterday: 46 °F (at 3:00 AM)
Average temperature yesterday: 62 °F

Past Weeks' High & Low Weather Summary

 TemperatureHumidityPressure
High90 °F (Jul 16, 1:30 PM)100% (Jul 21, 5:00 AM)30.12 "Hg (Jul 21, 5:00 AM)
Low45 °F (Jul 21, 4:30 AM)26% (Jul 16, 1:30 PM)29.71 "Hg (Jul 20, 2:00 PM)
Average64 °F63%29.94 "Hg
* Reported Jul 15 2:00 AM — Jul 30 2:30 AM, Kazan, Weather by CustomWeather, © 2014

Note: Actual official high and low records may vary slightly from our data, if they occured in-between our weather recording intervals... More about our weather records

Advertising

Kazan weather history for previous 24 hours

 ConditionsComfort  
Time TempWeatherWind HumidityBarometerVisibility
2:30 AM
Jul 30
61 °FClear.8 mph77%29.98 "Hg10 mi
2:00 AM59 °FClear.6 mph82%29.98 "Hg10 mi
1:30 AM61 °FClear.6 mph77%29.98 "Hg10 mi
12:30 AM59 °FClear.8 mph82%29.98 "Hg10 mi
12:00 AM61 °FClear.8 mph72%29.98 "Hg10 mi
11:30 PM
Jul 29
61 °FClear.8 mph72%29.98 "Hg10 mi
11:00 PM61 °FClear.8 mph72%29.98 "Hg10 mi
10:30 PM63 °FClear.8 mph73%30.01 "Hg10 mi
10:00 PM61 °FClear.6 mph72%30.01 "Hg10 mi
9:30 PM61 °FSunny.6 mph72%30.01 "Hg10 mi
9:00 PM63 °FSunny.6 mph68%30.01 "Hg10 mi
8:30 PM64 °FSunny.8 mph64%30.01 "Hg10 mi
8:00 PM68 °FSunny.6 mph53%30.01 "Hg10 mi
7:30 PM70 °FSunny.6 mph50%30.01 "Hg10 mi
7:00 PM72 °FSunny.8 mph44%30.01 "Hg10 mi
6:30 PM73 °FSunny.8 mph41%30.01 "Hg10 mi
6:00 PM73 °FSunny.6 mph38%30.01 "Hg10 mi
5:30 PM73 °FSunny.8 mph38%30.04 "Hg10 mi
5:00 PM73 °FSunny.6 mph38%30.04 "Hg10 mi
4:30 PM73 °FSunny.6 mph38%30.07 "Hg10 mi
4:00 PM72 °FSunny.6 mph41%30.07 "Hg10 mi
3:30 PM72 °FSunny.6 mph41%30.07 "Hg10 mi
3:00 PM72 °FSunny.6 mph41%30.07 "Hg10 mi
2:30 PM72 °FSunny.8 mph41%30.07 "Hg10 mi
2:00 PM72 °FSunny.8 mph41%30.09 "Hg10 mi
1:30 PM70 °FSunny.6 mph46%30.09 "Hg10 mi
1:00 PM70 °FSunny.8 mph46%30.09 "Hg10 mi
12:30 PM70 °FSunny.6 mph50%30.09 "Hg10 mi
12:00 PM68 °FSunny.6 mph49%30.09 "Hg10 mi
11:00 AM66 °FSunny.3 mph49%30.12 "Hg10 mi
10:30 AM66 °FSunny.3 mph52%30.12 "Hg10 mi
10:00 AM64 °FSunny.6 mph56%30.12 "Hg10 mi
9:30 AM64 °FSunny.3 mph56%30.12 "Hg10 mi
9:00 AM63 °FSunny.6 mph59%30.12 "Hg10 mi
8:30 AM63 °FSunny.6 mph64%30.12 "Hg10 mi
8:00 AM61 °FSunny.6 mph59%30.12 "Hg10 mi
7:30 AM59 °FSunny.3 mph68%30.12 "Hg10 mi
7:00 AM57 °FSunny.No wind67%30.12 "Hg10 mi
6:30 AM55 °FSunny.No wind77%30.12 "Hg10 mi
6:00 AM52 °FSunny.3 mph82%30.12 "Hg10 mi
5:30 AM48 °FClear.No wind94%30.12 "Hg10 mi
5:00 AM46 °FClear.3 mph93%30.12 "Hg10 mi
4:30 AM46 °FClear.3 mph93%30.12 "Hg10 mi
4:00 AM48 °FClear.3 mph87%30.12 "Hg10 mi
3:30 AM46 °FClear.3 mph93%30.12 "Hg10 mi
3:00 AM46 °FClear.3 mph93%30.12 "Hg10 mi
Weather by CustomWeather, © 2014

See weather overviewHow to use our weather pages